Simultaneous Nadir Overpasses (SNOs) Predictions

Prediction of SNOs near US between AQUA and NPP Satellite Orbit:

Table of predicted SNOs near US for the next 10.0 days since TLE Epoch: 2/24/2012
Index Date (AQUA) Time (AQUA) AQUA Lat,Lon Date (NPP) Time (NPP) NPP Lat,Lon Distance(km) Time Diff (sec)
1 02/25/2012 18:17:04 49.95, -80.27 02/25/2012 18:09:46 49.71, -81.75 109.22 438
2 02/25/2012 19:55:57 49.94,-104.99 02/25/2012 19:51:14 49.60,-107.07 154.50 283
3 02/25/2012 21:31:02 36.35,-124.99 02/25/2012 21:28:47 35.87,-127.47 229.59 135
4 02/28/2012 09:24:39 20.05,-114.31 02/28/2012 09:16:19 19.00,-115.03 138.75 500
5 03/02/2012 06:31:01 44.40, -65.81 03/02/2012 06:30:24 44.73, -67.88 168.41 37
6 03/02/2012 08:08:21 49.93, -88.39 03/02/2012 08:10:15 50.43, -90.90 187.05 114
7 03/02/2012 09:47:14 49.93,-113.11 03/02/2012 09:51:43 50.54,-116.22 231.47 269
8 03/04/2012 19:06:30 49.95, -92.61 03/04/2012 19:00:33 49.63, -94.43 135.17 357
9 03/04/2012 20:45:23 49.95,-117.33 03/04/2012 20:42:01 49.52,-119.76 180.52 202




NCC Satellite Simultaneous Nadir Overpasses (SNOs) Prediction Service
